metlocid,date_time,avg_icesurfchange_cm,stddev_icesurfchange_cm,min_icesurfchange_cm,max_icesurfchange_cm,n_icesurfchange_cm,n_comments
COHM,1/1/03,48.6904524,0.209604183,48.2,49.2,796,0
COHM,2/1/03,50.06800603,0.632528491,48.8,51.1,2688,0
COHM,3/1/03,53.31357511,3.196273606,47.2,58.3,2976,0
COHM,4/1/03,57.04069449,1.388223914,50.4,58.5,2880,0
COHM,5/1/03,54.99932806,0.537169303,52.9,56.6,2976,0
COHM,6/1/03,55.83944443,0.481775956,52,56.6,2880,0
COHM,7/1/03,56.45940844,0.199812071,55.9,57,2976,0
COHM,8/1/03,54.43790319,2.081102219,51.4,57.3,2976,0
COHM,9/1/03,56.50541659,1.312852944,49.3,57.5,2880,0
COHM,10/1/03,58.30295701,0.553155482,57.1,59.7,2976,0
COHM,11/1/03,59.61319426,0.996767682,46,61.1,2880,0
COHM,12/1/03,58.440457,1.789670487,49.6,61.4,2976,0
COHM,1/1/04,60.92338713,1.085874473,55.5,64.1,2976,0
COHM,2/1/04,66.64353421,1.159051536,62.5,68.7,2784,0
COHM,3/1/04,67.83575245,0.431513174,65.2,69.1,2976,0
COHM,4/1/04,60.81847221,2.847521178,50.2,68.7,2880,0
COHM,5/1/04,64.7668013,3.185768983,59.9,68.4,2976,0
COHM,6/1/04,69.12472236,0.725575826,67.3,70.3,2880,0
COHM,7/1/04,69.98897885,0.229077981,69.5,70.9,2976,0
COHM,8/1/04,70.04502709,0.598487239,66.5,72.6,2976,0
COHM,9/1/04,70.18277782,0.319008747,69.1,72.4,2880,0
COHM,10/1/04,70.62728492,0.920837274,67.8,73.1,2976,0
COHM,11/1/04,71.95706851,1.09349784,69.2,75.4,2879,1
COHM,12/1/04,70.3634407,2.137028716,62.8,73.2,2976,0
COHM,1/1/05,68.03830673,1.469729608,62.9,72.3,2976,0
COHM,2/1/05,70.09836352,1.550253991,65.2,73.8,2688,0
COHM,3/1/05,71.70053737,1.400887872,69,73.3,2976,0
COHM,4/1/05,69.27805541,0.50165857,67,72.4,2880,0
COHM,5/1/05,68.67258061,0.670513224,66.2,70.8,2976,0
COHM,6/1/05,68.70958335,3.630170348,56,71.8,2880,0
COHM,7/1/05,72.39623662,0.554776964,71.6,75,2976,0
COHM,8/1/05,75.08104812,0.249079606,73.9,75.9,2976,0
COHM,9/1/05,75.25055505,0.170567732,74.8,76,2880,0
COHM,10/1/05,75.64556429,0.355821287,75,76.7,2976,0
COHM,11/1/05,78.11277794,0.934478929,76.4,80.2,2880,0
COHM,12/1/05,78.38750011,1.354300355,75.2,80.8,2976,0
COHM,1/1/06,78.92968077,0.97989353,77.2,80.5,2975,0
COHM,2/1/06,77.97589319,6.5414552,47.3,81.3,2688,0
COHM,3/1/06,78.92338705,4.557887382,59.7,82.7,2976,0
COHM,4/1/06,81.07083322,0.978325329,77.7,83.5,2880,0
COHM,5/1/06,80.74758067,2.03601711,75.3,85,2976,0
COHM,6/1/06,75.77541667,2.512339612,63.7,78.2,2880,0
COHM,7/1/06,76.74583345,1.219564644,74.3,78.6,2976,0
COHM,8/1/06,77.95416663,0.71070307,75.6,79.2,2976,0
COHM,9/1/06,72.17902792,1.772231351,69.4,76.9,2880,0
COHM,10/1/06,69.93669349,3.604417148,62.4,73.3,2976,0
COHM,11/1/06,63.93517564,1.062334078,59.2,65.4,2877,3
COHM,12/1/06,64.33306473,2.527319571,54.6,69,2976,0
COHM,1/1/07,69.37231192,0.493547834,67.5,71.1,2976,0
COHM,2/1/07,69.90119092,2.069128861,61.7,71.6,2688,0
COHM,3/1/07,71.11129025,0.477451663,68.4,71.9,2976,0
COHM,4/1/07,72.638472,1.703806906,71,76.8,2880,0
COHM,5/1/07,74.62916671,1.389195941,72.1,77.7,2976,0
COHM,6/1/07,76.93402794,0.587299238,74.3,78.4,2880,0
COHM,7/1/07,78.44637087,1.233204614,73.7,81,2976,0
COHM,8/1/07,80.6373678,0.714074895,79.3,82.4,2976,0
COHM,9/1/07,75.12555521,1.670748136,72.2,80.6,2880,0
COHM,10/1/07,74.26370965,2.004492527,67.7,76.1,2976,0
COHM,11/1/07,75.13875,1.831092271,70.2,77.6,2880,0
COHM,12/1/07,73.70457,2.654405471,65.6,76.5,2976,0
COHM,1/1/08,65.8712366,1.469650214,58,70.4,2976,0
COHM,2/1/08,66.69885036,0.937745235,62.3,68.1,2784,0
COHM,3/1/08,67.48225836,0.655039579,65.4,68.5,2976,0
COHM,4/1/08,66.70027761,0.383653317,66,68.7,2880,0
COHM,5/1/08,67.11478462,0.201164056,66.5,68.1,2976,0
COHM,6/1/08,67.34180581,0.403409866,65.2,68.5,2880,0
COHM,7/1/08,67.87365587,0.212559325,67.3,68.9,2976,0
COHM,8/1/08,68.29677416,0.268233689,67.5,69.1,2976,0
COHM,9/1/08,68.81222221,0.519427878,67.8,70.2,2880,0
COHM,10/1/08,69.15604841,0.515458401,68.2,71.6,2976,0
COHM,11/1/08,69.93777811,1.304499334,68.1,72.5,2880,0
COHM,12/1/08,74.53387096,1.017960582,72,76.4,2976,0
COHM,1/1/09,77.91639809,1.425576672,73.6,81.5,2976,0
COHM,2/1/09,82.76636912,2.24840676,79.7,89.9,2688,0
COHM,3/1/09,91.07338713,1.723047107,86.8,94.5,2976,0
COHM,4/1/09,91.28124999,2.125220898,80.4,95.4,2880,0
COHM,5/1/09,90.29919369,1.031262066,87.7,92.2,2976,0
COHM,6/1/09,92.29430545,1.257346091,88.8,95.1,2880,0
COHM,7/1/09,93.82419361,1.596089504,89.9,98.4,2976,0
COHM,8/1/09,93.26586019,2.324542885,85.1,97.1,2976,0
COHM,9/1/09,94.17055563,1.311310563,89.9,96.6,2880,0
COHM,10/1/09,94.33306448,0.898586454,91.1,97.9,2976,0
COHM,11/1/09,90.51972218,3.57415738,77.8,94.8,2880,0
COHM,12/1/09,92.95497309,0.702860114,91.3,94.3,2976,0
COHM,1/1/10,93.02540329,2.255066295,84.5,96.1,2976,0
COHM,2/1/10,95.17276779,1.523522022,88.8,98.2,2688,0
COHM,3/1/10,94.67903231,1.007716746,90.8,96.7,2976,0
COHM,4/1/10,93.62611103,0.951807943,87.6,95.7,2880,0
COHM,5/1/10,93.67392476,1.54581969,89.9,96.8,2976,0
COHM,6/1/10,93.92138898,1.055125574,90.2,95.8,2880,0
COHM,7/1/10,94.86034949,1.384825388,91.9,98.2,2976,0
COHM,8/1/10,95.39919358,1.150087818,91.8,97.9,2976,0
COHM,9/1/10,96.17222226,1.041150101,93.6,98.5,2880,0
COHM,10/1/10,95.61706995,0.749976589,93.6,97.3,2976,0
COHM,11/1/10,98.96555555,1.436982876,96.3,102.2,2880,0
COHM,12/1/10,106.0337466,7.702791739,100.4,134.4,2904,72
COHM,1/1/11,130.7174247,2.208862552,118.5,136.5,2967,1
COHM,2/1/11,127.0002978,1.971860176,119,130.4,2688,0
COHM,3/1/11,124.4732526,0.697479433,121.9,125.8,2976,0
COHM,4/1/11,125.4922223,0.529316376,122.7,127.1,2880,0
COHM,5/1/11,126.157258,0.288352671,125.2,127.4,2976,0
COHM,6/1/11,126.2783333,0.519173099,125.2,127.9,2880,0
COHM,7/1/11,127.2508068,0.787123226,123.8,128.8,2976,0
COHM,8/1/11,128.844086,0.589629141,125.5,130.3,2976,0
COHM,9/1/11,129.5509726,0.449860862,128.1,130.8,2880,0
COHM,10/1/11,130.0888441,0.388710312,128.4,131.8,2976,0
COHM,11/1/11,131.155972,0.739360716,129.7,132.9,2880,0
COHM,12/1/11,133.545599,1.045910963,131,136.7,2772,200
COHM,1/1/12,67.65748675,20.72186226,59.9,137.3,2825,151
COHM,2/1/12,63.07173907,2.006527364,57.2,67.7,2392,392
COHM,3/1/12,60.48957057,1.768249095,57,65.2,1956,1020
COHM,4/1/12,63.87965108,0.926094386,61.4,67.2,1376,1504
COHM,5/1/12,66.60677966,1.806644407,60.9,70.1,1652,1324
COHM,6/1/12,68.00200001,1.0192551,65.9,70.2,1400,1480
COHM,7/1/12,67.89811823,0.770590503,66.2,70.4,1488,1488
COHM,8/1/12,68.43610233,0.977217697,66.1,70.4,1252,1724
COHM,9/1/12,68.76681799,1.139757243,65.8,72.4,1760,1120
COHM,10/1/12,68.325926,0.910277323,66.1,72,1620,1356
COHM,11/1/12,70.32692308,0.50505482,69.6,72.2,416,2464
COHM,12/1/12,72.53076876,0.550917313,72,74.2,104,2872
COHM,1/1/13,69.80000305,0,69.8,69.8,4,2976
COHM,2/1/13,,,,,0,2688
COHM,3/1/13,,,,,0,2976
COHM,4/1/13,,,,,0,2876
COHM,5/1/13,,,,,0,2976
COHM,6/1/13,,,,,0,2880
COHM,7/1/13,,,,,0,2976
COHM,8/1/13,,,,,0,2976
COHM,9/1/13,,,,,0,2880
COHM,10/1/13,,,,,0,2976
COHM,11/1/13,,,,,0,737
COHM,12/1/13,,,,,0,0
COHM,1/1/14,,,,,0,2683
COHM,2/1/14,,,,,0,2688
COHM,3/1/14,,,,,0,2976
COHM,4/1/14,,,,,0,2880
COHM,5/1/14,,,,,0,2976
COHM,6/1/14,,,,,0,2880
COHM,7/1/14,,,,,0,2976
COHM,8/1/14,,,,,0,2976
COHM,9/1/14,,,,,0,2880
COHM,10/1/14,,,,,0,2976
COHM,11/1/14,72.44098711,0.277583525,71.8,73.1,1864,2879
COHM,12/1/14,70.81760764,3.050261159,61.4,74.6,2976,2976
COHM,1/1/15,64.83333322,3.097121941,58.9,71.4,2976,2976
COHM,2/1/15,62.45342287,0.519184813,60.5,63.3,2688,2688
COHM,3/1/15,62.30362903,0.128391504,61.9,62.7,2976,2976
COHM,4/1/15,61.41277769,0.504818672,59.1,62.9,2880,2880
COHM,5/1/15,61.04771492,0.19345968,57.7,61.7,2976,2976
COHM,6/1/15,64.87541731,1.439238327,60.7,66.1,2880,2880
COHM,7/1/15,65.82343319,0.358069944,64,67.9,2936,2976
COHM,8/1/15,66.90591427,0.885265953,61.8,69.8,2976,2976
COHM,9/1/15,69.56958327,0.234750329,68.9,71.3,2880,2880
COHM,10/1/15,69.85295673,0.433292523,69,71,2976,2976
COHM,11/1/15,70.34659266,0.941480219,66.7,72.3,2876,2877
COHM,12/1/15,78.51995974,2.235248916,71.7,81.9,2971,2974
COHM,1/1/16,82.41787663,1.703600704,79.7,84.3,2976,2976
COHM,2/1/16,88.99870691,2.257784498,83.9,91.8,2784,2784
COHM,3/1/16,90.70329274,0.539488409,87.8,91.9,2551,2976
COHM,4/1/16,,,,,0,1194
COHM,5/1/16,,,,,0,1209
COHM,6/1/16,,,,,0,2880
COHM,7/1/16,,,,,0,2976
COHM,8/1/16,,,,,0,2976
COHM,9/1/16,,,,,0,2880
COHM,10/1/16,69.18902355,0.16028002,68.9,69.7,328,2949
COHM,11/1/16,66.82847238,4.623414288,53.8,70.6,2880,2880
COHM,12/1/16,64.39529543,1.232180933,60.8,65.9,2976,2976
COHM,1/1/17,67.37594072,1.955050977,63.5,70.1,2976,2976
COHM,2/1/17,71.30491117,0.535725983,69.8,72.3,2688,2688
COHM,3/1/17,69.09919266,1.912765977,65.3,72.3,2972,2976
COHM,4/1/17,71.60973502,1.681039604,55.6,72.9,2876,2880
COHM,5/1/17,72.69919343,0.169862837,71.9,73.4,2976,2976
COHM,6/1/17,73.01722286,0.197258979,72.6,73.8,2880,2880
COHM,7/1/17,73.2970423,0.225779256,72.6,74,2976,2976
COHM,8/1/17,74.12513433,0.410811907,71.8,74.9,2976,2976
COHM,9/1/17,74.8323617,0.155912066,74.1,75.4,2880,2880
COHM,10/1/17,74.90940898,0.38870461,73.4,76,2976,2976
COHM,11/1/17,74.98570443,1.581253591,70.3,76.3,2875,2875
COHM,12/1/17,69.98198931,1.953206768,63,72.2,2976,2976
COHM,1/1/18,64.07997294,2.968774534,58.6,68.9,2976,2976
COHM,2/1/18,62.08630968,2.97168741,56.3,65.3,2688,2688
COHM,3/1/18,57.4018818,1.729194666,50.5,62.4,2976,2976
COHM,4/1/18,65.52027752,8.24809137,57.7,146.4,2880,2880
COHM,5/1/18,72.24287642,0.416244097,71.4,73.3,2976,2976
COHM,6/1/18,71.77541655,2.473353582,61.8,73.4,2880,2880
COHM,7/1/18,65.50672085,7.010537118,51.3,73.6,2976,2976
COHM,8/1/18,72.90551098,0.244405449,72.1,74,2976,2976
COHM,9/1/18,73.19333306,0.238637065,72.2,73.8,2880,2880
COHM,10/1/18,73.52607531,0.254292365,72.6,74.3,2976,2976
COHM,11/1/18,73.80013924,2.512156486,66.7,76.6,2872,2540
COHM,12/1/18,70.1713901,1.671996378,67.3,74.2,2971,3
COHM,1/1/19,73.54435466,1.273880623,69.3,76.9,2976,0
COHM,2/1/19,75.25684517,2.565532238,62.6,78,2688,0
COHM,3/1/19,68.71384421,1.291694202,63.8,71.7,2976,0
COHM,4/1/19,71.7552783,4.019877271,67.3,78.8,2880,0
COHM,5/1/19,77.58575245,10.06427288,71.4,162.6,2976,0
COHM,6/1/19,75.50444441,4.767938308,36.3,142.1,2880,0
COHM,7/1/19,77.14623665,7.152640359,71.2,152.7,2976,0
COHM,8/1/19,78.08051067,0.215585485,77.4,80,2976,0
COHM,9/1/19,78.54041652,0.15073629,78,79.9,2880,0
COHM,10/1/19,78.75712359,0.159505329,78.2,80,2976,0
COHM,11/1/19,79.53625001,0.606716883,78.7,82.6,2880,0
COHM,12/1/19,75.29922531,7.048513233,61.1,132,2969,323
COHM,1/1/20,62.03091396,0.907076822,58,64.4,2976,2976
COHM,2/1/20,56.26594827,7.530884917,41.3,102.5,2784,2784
COHM,3/1/20,51.25739255,5.92308345,44.8,119.2,2976,2976
COHM,4/1/20,65.64277806,2.511053135,61.4,70.9,2880,2880
COHM,5/1/20,67.99166623,0.237884995,67.2,69,2976,2976
COHM,6/1/20,67.74763884,0.279671022,66.7,68.4,2880,2880
COHM,7/1/20,68.97580576,0.912482744,65.6,71.6,2976,2976
COHM,8/1/20,70.47957006,8.52304341,59.4,146.9,2976,2976
COHM,9/1/20,65.43277772,10.05796776,0,145.2,2880,2880
COHM,10/1/20,70.13387109,2.77788794,68,142.8,2976,2976
COHM,11/1/20,72.64000009,4.252304655,70.5,151.5,2880,2880
COHM,12/1/20,74.07728486,1.698199102,71.3,77.8,2976,2976
COHM,1/1/21,79.22083311,1.383410228,75.6,82,2976,2976
COHM,2/1/21,78.38660687,4.894546893,69.1,83.8,2688,2688
COHM,3/1/21,59.09999995,5.486484692,38.1,123.2,2976,2976
COHM,4/1/21,56.96569456,1.810640626,53.3,60.2,2880,2880
COHM,5/1/21,55.56801088,5.862108307,50.4,119.1,2976,2976
COHM,6/1/21,78.60138898,4.089026545,69.7,84,2880,2880
COHM,7/1/21,83.44650559,0.468677052,79.1,84.8,2976,2976
COHM,8/1/21,84.52513445,1.413994861,83.1,91.2,2976,2976
COHM,9/1/21,83.49999976,3.376357579,70.6,154.4,2880,2880
COHM,10/1/21,84.5112905,0.749197977,79.3,86,2976,2976
COHM,11/1/21,85.00500004,0.592979416,81.8,87.6,2880,2880
COHM,12/1/21,78.588529,6.145185983,65.6,84.8,2964,2969
COHM,1/1/22,71.65013432,0.997030782,69.1,73,2976,2976
COHM,2/1/22,74.20833297,0.755511827,73,75.8,2688,2688
COHM,3/1/22,75.52056492,0.395360737,74.5,76.2,2976,2976
COHM,4/1/22,74.68847178,0.853584912,71.1,76.4,2880,2880
COHM,5/1/22,76.15053728,0.271688609,75.3,77.9,2976,2976
COHM,6/1/22,76.75916598,0.145129143,76.3,77.3,2880,2880
COHM,7/1/22,76.93871044,0.210529554,76.2,77.6,2976,2976
COHM,8/1/22,77.54556443,0.193074183,77,78.2,2976,2976
COHM,9/1/22,77.89569468,0.203056392,77.2,79.4,2880,2880
COHM,10/1/22,78.60174739,0.334920531,77.7,79.5,2976,2976
COHM,11/1/22,79.55097196,0.335467135,78.9,80.6,2880,2880
COHM,12/1/22,80.86061954,0.354434286,80.2,81.6,904,904